Weather History for Crestview, FL

Change the Weather History Date:

Wednesday, December 12, 2012

  Actual Average Record
Temperature  
Mean Temperature 44 °F -  
Max Temperature 51 °F - - ()
Min Temperature 36 °F - - ()
Degree Days  
Heating Degree Days 22    
Moisture  
Dew Point 39 °F    
Average Humidity 88    
Maximum Humidity 93    
Minimum Humidity 60    
Precipitation  
Precipitation 0.03 in - - ()
Sea Level Pressure  
Sea Level Pressure 30.15 in    
Wind  
Wind Speed 7 mph (North)    
Max Wind Speed 10 mph    
Max Gust Speed -    
Visibility 10 miles    
Events Rain    
T = Trace of Precipitation, MM = Missing Value Source: NWS Daily Summary

Daily Weather History Graph

Daily Weather History Graph

Search for Another Location

Airport:

Trip Planner

Search our weather history database for the weather conditions in past years. The results will help you decide how hot, cold, wet, or windy it might be!

Date:

Astronomy

Dec. 12, 2012 Rise Set
Actual Time 6:34 AM CST 4:45 PM CST
Civil Twilight 6:07 AM CST 5:12 PM CST
Nautical Twilight 5:37 AM CST 5:42 PM CST
Astronomical Twilight 5:08 AM CST 6:11 PM CST
Moon 5:39 AM CST 4:21 PM CST
Length of Visible Light 11h 04m
Length of Day
10h 11m
Waning Crescent, 1% of the Moon is Illuminated
Dec 12
Waning Crescent
Dec 13
New
Dec 19
First Quarter
Dec 28
Full
Jan 4
Last Quarter

Hourly Weather History & Observations

Time (CST) Temp. Windchill Dew Point Humidity Pressure Visibility Wind Dir Wind Speed Gust Speed Precip Events Conditions
12:03 AM 42.8 °F 38.6 °F 41.0 °F 93% 30.13 in 9.0 mi NNE 6.9 mph - N/A Rain Light Rain
12:34 AM 42.8 °F 38.6 °F 41.0 °F 93% 30.13 in 7.0 mi North 6.9 mph - N/A Rain Light Rain
12:36 AM 42.8 °F 39.3 °F 41.0 °F 93% 30.12 in 7.0 mi North 5.8 mph - N/A Rain Light Rain
12:48 AM 42.8 °F 38.0 °F 41.0 °F 93% 30.12 in 8.0 mi North 8.1 mph - N/A   Light Drizzle
12:49 AM 42.8 °F 37.5 °F 41.0 °F 93% 30.12 in 9.0 mi North 9.2 mph - N/A   Mostly Cloudy
12:51 AM 42.8 °F 38.0 °F 41.0 °F 93% 30.13 in 9.0 mi North 8.1 mph - N/A Rain Light Rain
12:55 AM 42.3 °F 37.3 °F 40.5 °F 93% 30.13 in 9.0 mi North 8.1 mph - 0.01 in   Light Drizzle
1:03 AM 42.8 °F 37.5 °F 39.2 °F 87% 30.12 in 10.0 mi North 9.2 mph - N/A Rain Light Rain
1:11 AM 42.8 °F 37.5 °F 41.0 °F 93% 30.12 in 10.0 mi North 9.2 mph - N/A   Partly Cloudy
1:29 AM 42.8 °F 38.0 °F 41.0 °F 93% 30.13 in 10.0 mi North 8.1 mph - N/A   Mostly Cloudy
1:31 AM 42.8 °F 37.5 °F 41.0 °F 93% 30.13 in 10.0 mi North 9.2 mph - N/A   Mostly Cloudy
1:38 AM 42.8 °F 37.0 °F 39.2 °F 87% 30.13 in 10.0 mi North 10.4 mph - N/A   Mostly Cloudy
1:49 AM 41.0 °F 35.8 °F 39.2 °F 93% 30.12 in 10.0 mi North 8.1 mph - N/A   Mostly Cloudy
1:55 AM 41.7 °F 36.7 °F 39.4 °F 91% 30.12 in 10.0 mi North 8.1 mph - 0.00 in   Mostly Cloudy
2:55 AM 41.4 °F 36.2 °F 38.8 °F 91% 30.09 in 10.0 mi NNE 8.1 mph - N/A   Scattered Clouds
3:51 AM 41.0 °F 37.1 °F 39.2 °F 93% 30.12 in 10.0 mi North 5.8 mph - N/A Rain Light Rain
3:55 AM 41.5 °F 37.8 °F 38.5 °F 89% 30.12 in 10.0 mi North 5.8 mph - 0.00 in Rain Light Rain
4:04 AM 41.0 °F 36.4 °F 39.2 °F 93% 30.12 in 10.0 mi North 6.9 mph - N/A   Overcast
4:15 AM 41.0 °F 35.2 °F 39.2 °F 93% 30.12 in 10.0 mi North 9.2 mph - N/A Rain Light Rain
4:55 AM 41.5 °F 36.4 °F 38.7 °F 89% 30.13 in 10.0 mi North 8.1 mph - 0.01 in Rain Light Rain
5:04 AM 41.0 °F 36.4 °F 39.2 °F 93% 30.14 in 10.0 mi North 6.9 mph - N/A Rain Light Rain
5:05 AM 41.0 °F 35.8 °F 39.2 °F 93% 30.13 in 10.0 mi North 8.1 mph - N/A Rain Light Rain
5:55 AM 41.4 °F 37.6 °F 38.7 °F 90% 30.15 in 10.0 mi North 5.8 mph - 0.00 in Rain Light Rain
5:57 AM 41.0 °F 37.1 °F 39.2 °F 93% 30.16 in 10.0 mi North 5.8 mph - N/A   Mostly Cloudy
6:36 AM 41.0 °F 38.0 °F 39.2 °F 93% 30.14 in 10.0 mi NNE 4.6 mph - N/A Rain Light Rain
6:55 AM 41.4 °F 36.8 °F 38.7 °F 90% 30.16 in 10.0 mi North 6.9 mph - 0.00 in Rain Light Rain
6:59 AM 41.0 °F 37.1 °F 39.2 °F 93% 30.16 in 10.0 mi North 5.8 mph - N/A   Mostly Cloudy
7:55 AM 41.9 °F 38.2 °F 38.7 °F 88% 30.15 in 10.0 mi NE 5.8 mph - 0.01 in   Overcast
8:55 AM 42.8 °F 38.6 °F 39.4 °F 88% 30.21 in 10.0 mi NW 6.9 mph - N/A   Overcast
9:55 AM 43.3 °F 38.6 °F 38.7 °F 84% 30.20 in 10.0 mi North 8.1 mph - N/A   Overcast
10:55 AM 45.0 °F 40.6 °F 38.7 °F 79% 30.18 in 10.0 mi NNE 8.1 mph - N/A   Overcast
11:55 AM 47.8 °F - 40.5 °F 76% 30.17 in 10.0 mi NNW 6.9 mph - N/A   Overcast
12:55 PM 48.6 °F - 40.5 °F 74% 30.16 in 10.0 mi NNW 9.2 mph - N/A   Overcast
1:55 PM 48.6 °F - 40.5 °F 74% 30.16 in 10.0 mi NNE 9.2 mph - N/A   Mostly Cloudy
2:55 PM 51.4 °F - 39.7 °F 64% 30.18 in 10.0 mi NNW 8.1 mph - N/A   Mostly Cloudy
3:55 PM 51.6 °F - 38.3 °F 60% 30.18 in 10.0 mi North 8.1 mph - N/A   Mostly Cloudy
4:55 PM 47.5 °F - 39.7 °F 75% 30.19 in 10.0 mi NNW 4.6 mph - N/A   Scattered Clouds
5:55 PM 42.8 °F 41.1 °F 38.8 °F 86% 30.19 in 10.0 mi NNW 3.5 mph - N/A   Partly Cloudy
6:55 PM 40.5 °F 36.5 °F 36.9 °F 87% 30.20 in 10.0 mi North 5.8 mph - N/A   Clear
7:55 PM 39.0 °F 34.8 °F 35.2 °F 86% 30.20 in 10.0 mi North 5.8 mph - N/A   Clear
8:55 PM 38.1 °F - 34.7 °F 87% 30.21 in 10.0 mi Calm Calm - N/A   Clear
9:55 PM 36.7 °F 34.1 °F 34.3 °F 91% 30.23 in 10.0 mi NW 3.5 mph - N/A   Clear
10:55 PM 37.6 °F 34.0 °F 34.5 °F 89% 30.24 in 10.0 mi WNW 4.6 mph - N/A   Clear
11:55 PM 36.7 °F 34.1 °F 33.3 °F 87% 30.24 in 10.0 mi NNW 3.5 mph - N/A   Clear